星链-1617 (STARLINK-1617 )

导读

STARLINK-1617是美国太空探索技术公司Starlink星座的卫星,于北京时间2020年9月3日发射入轨,属于星链互联网卫星星座的组网成员,承担低轨卫星互联网信号传递任务,运行在近地轨道,为全球提供宽带互联网接入服务,是星链大规模组网进程中发射的卫星之一,支撑星座全球覆盖能力的构建。

基本信息
目录编号:
46350
目录名称:
STARLINK-1617
国际标识:
2020-062AB
轨道中心:
EARTH
卫星名称:
星链-1617
卫星全名:
星链-1617 (STARLINK-1617 )
卫星状态:
已陨落 最后检测时间 2024-06-08
发射日期:
2020-09-03 UTC
国别 :
美国 (US)
星等 :
--
该卫星已列入 空间交会检测服务 Space Conjunction Data Service (SCDS) ,当前飞行风险评估等级: 无高风险
轨道信息
数据来源 国际轨道数据
星历时间: 2024-06-08T08:09:15+0800
轨道信息已过期826天
半长轴: 6560.828km
偏心率: 0.0014437
轨道倾角: 53.031°
近地点辐角 288.111°
升交点赤经 321.168°
平近点角 177.636°
近地点: 173.221km
远地点: 192.165km
周期: 88.145分钟
每日圈数: 16.336717
详细信息
固有亮度:
5
最大亮度:
2.5
卫星平台:
Starlink V1.0
覆盖范围:
全球
运营商:
太空探索技术公司
运营商所在国:
美国
制造商(研发单位):
太空探索技术公司
制造商所在国:
美国
使用方式:
暂无
卫星简介
星链(Starlink)计划是由太空探索技术公司(SpaceX)提出的一个巨型低轨卫星互联网星座项目,计划在2019年至2024年间在太空搭建由约1.2万颗卫星组成的“星链”网络,其中1584颗将部署在地球上空550千米处的近地轨道,并从2020年开始工作。该卫星已陨落。
与全量物体交会距离演化趋势
与全量物体交会风险概率演化趋势